Previsão horária em Julkowo

Hoje, 18 Junho, Sexta-feira

Tempo Temperatura Precipitação Vento Pressão Humidade
00:00 +17°C° 0 mm 3 m/s 755 mmHg 74%
01:00 +17°C° 0 mm 3 m/s 755 mmHg 74%
02:00 +16°C° 0 mm 3 m/s 755 mmHg 76%
03:00 +16°C° 0 mm 3 m/s 755 mmHg 77%
04:00 +16°C° 0 mm 3 m/s 755 mmHg 78%
05:00 +18°C° 0 mm 3 m/s 755 mmHg 74%
06:00 +19°C° 0 mm 3 m/s 755 mmHg 70%
07:00 +21°C° 0 mm 3 m/s 755 mmHg 64%
08:00 +23°C° 0 mm 4 m/s 755 mmHg 61%
09:00 +26°C° 0 mm 4 m/s 755 mmHg 58%
10:00 +27°C° 0 mm 5 m/s 755 mmHg 54%
11:00 +28°C° 0 mm 5 m/s 755 mmHg 52%
12:00 +29°C° 0 mm 5 m/s 755 mmHg 49%
13:00 +30°C° 0 mm 5 m/s 754 mmHg 46%
14:00 +30°C° 0 mm 5 m/s 754 mmHg 47%
15:00 +30°C° 0 mm 4 m/s 754 mmHg 48%
16:00 +30°C° 0 mm 4 m/s 754 mmHg 50%
17:00 +28°C° 0 mm 4 m/s 753 mmHg 57%
18:00 +27°C° 0 mm 3 m/s 753 mmHg 63%
19:00 +26°C° 0 mm 3 m/s 753 mmHg 70%
20:00 +24°C° 0 mm 3 m/s 753 mmHg 74%
21:00 +22°C° 0 mm 3 m/s 754 mmHg 78%
22:00 +21°C° 0 mm 3 m/s 754 mmHg 82%
23:00 +20°C° 0 mm 3 m/s 754 mmHg 83%

Amanhã, 19 Junho, Sábado

Tempo Temperatura Precipitação Vento Pressão Humidade
00:00 +19°C° 0 mm 3 m/s 754 mmHg 85%
01:00 +19°C° 0 mm 3 m/s 754 mmHg 86%
02:00 +19°C° 0 mm 3 m/s 754 mmHg 87%
03:00 +18°C° 0 mm 3 m/s 754 mmHg 88%
04:00 +18°C° 0 mm 3 m/s 754 mmHg 89%
05:00 +20°C° 0 mm 3 m/s 754 mmHg 83%
06:00 +21°C° 0 mm 4 m/s 754 mmHg 76%
07:00 +23°C° 0 mm 4 m/s 754 mmHg 70%
08:00 +25°C° 0 mm 4 m/s 754 mmHg 65%
09:00 +27°C° 0 mm 4 m/s 754 mmHg 59%
10:00 +28°C° 0 mm 5 m/s 753 mmHg 54%
11:00 +29°C° 0 mm 4 m/s 753 mmHg 53%
12:00 +30°C° 0 mm 4 m/s 753 mmHg 51%
13:00 +30°C° 0 mm 4 m/s 753 mmHg 50%
14:00 +32°C° 0 mm 4 m/s 752 mmHg 50%
15:00 +32°C° 0 mm 4 m/s 752 mmHg 50%
16:00 +32°C° 0 mm 4 m/s 752 mmHg 51%
17:00 +29°C° 0 mm 4 m/s 752 mmHg 58%
18:00 +28°C° 0 mm 3 m/s 752 mmHg 65%
19:00 +27°C° 0 mm 3 m/s 752 mmHg 71%
20:00 +25°C° 0 mm 3 m/s 752 mmHg 74%
21:00 +24°C° 0 mm 3 m/s 752 mmHg 77%
22:00 +22°C° 0 mm 3 m/s 752 mmHg 80%
23:00 +22°C° 0.1 mm 3 m/s 752 mmHg 83%

Depois de amanhã, 20 Junho, Domingo

Tempo Temperatura Precipitação Vento Pressão Humidade
00:00 +21°C° 0.1 mm 3 m/s 752 mmHg 86%
01:00 +20°C° 0.1 mm 3 m/s 752 mmHg 89%
02:00 +20°C° 0 mm 3 m/s 752 mmHg 90%
03:00 +19°C° 0 mm 3 m/s 752 mmHg 91%
04:00 +19°C° 0 mm 3 m/s 751 mmHg 93%
05:00 +20°C° 0 mm 3 m/s 751 mmHg 87%
06:00 +22°C° 0 mm 4 m/s 751 mmHg 81%
07:00 +23°C° 0 mm 4 m/s 751 mmHg 75%
08:00 +25°C° 0 mm 4 m/s 751 mmHg 69%
09:00 +26°C° 0 mm 4 m/s 751 mmHg 62%
10:00 +28°C° 0 mm 5 m/s 751 mmHg 56%
11:00 +28°C° 0 mm 5 m/s 751 mmHg 53%
12:00 +29°C° 0 mm 5 m/s 751 mmHg 51%
13:00 +30°C° 0 mm 5 m/s 750 mmHg 49%
14:00 +30°C° 0 mm 5 m/s 750 mmHg 49%
15:00 +30°C° 0 mm 4 m/s 750 mmHg 49%
16:00 +30°C° 0 mm 4 m/s 749 mmHg 50%
17:00 +29°C° 0 mm 4 m/s 749 mmHg 56%
18:00 +27°C° 0 mm 3 m/s 749 mmHg 63%
19:00 +26°C° 0 mm 3 m/s 749 mmHg 69%
20:00 +25°C° 0 mm 3 m/s 748 mmHg 72%
21:00 +24°C° 0 mm 3 m/s 748 mmHg 75%
22:00 +22°C° 0 mm 3 m/s 748 mmHg 78%
23:00 +21°C° 0 mm 3 m/s 748 mmHg 82%

21 Junho, Segunda-feira

Tempo Temperatura Precipitação Vento Pressão Humidade
00:00 +20°C° 0 mm 3 m/s 748 mmHg 86%
01:00 +20°C° 0 mm 3 m/s 748 mmHg 90%
02:00 +19°C° 0 mm 3 m/s 748 mmHg 92%
03:00 +19°C° 0 mm 3 m/s 747 mmHg 93%
04:00 +19°C° 0 mm 4 m/s 747 mmHg 94%
05:00 +21°C° 0 mm 4 m/s 747 mmHg 87%
06:00 +22°C° 0 mm 5 m/s 747 mmHg 80%
07:00 +23°C° 0 mm 6 m/s 747 mmHg 72%
08:00 +26°C° 0 mm 6 m/s 747 mmHg 67%
09:00 +27°C° 0 mm 6 m/s 747 mmHg 61%
10:00 +28°C° 0 mm 6 m/s 747 mmHg 56%
11:00 +29°C° 0 mm 6 m/s 747 mmHg 55%
12:00 +29°C° 0 mm 6 m/s 746 mmHg 53%
13:00 +30°C° 0 mm 5 m/s 746 mmHg 52%
14:00 +30°C° 0 mm 5 m/s 746 mmHg 52%
15:00 +30°C° 0 mm 4 m/s 746 mmHg 53%
16:00 +30°C° 0 mm 4 m/s 746 mmHg 53%
17:00 +28°C° 0 mm 4 m/s 745 mmHg 60%
18:00 +27°C° 0 mm 4 m/s 745 mmHg 67%
19:00 +26°C° 0 mm 4 m/s 745 mmHg 74%
20:00 +23°C° 0.1 mm 4 m/s 745 mmHg 78%
21:00 +22°C° 0.1 mm 3 m/s 746 mmHg 83%
22:00 +21°C° 0.1 mm 2 m/s 746 mmHg 87%
23:00 +20°C° 0.6 mm 2 m/s 746 mmHg 90%

22 Junho, Terça-feira

Tempo Temperatura Precipitação Vento Pressão Humidade
00:00 +20°C° 0.6 mm 2 m/s 746 mmHg 93%
01:00 +20°C° 0.6 mm 1 m/s 746 mmHg 95%
02:00 +20°C° 0.1 mm 1 m/s 746 mmHg 95%
03:00 +20°C° 0.1 mm 1 m/s 746 mmHg 95%
04:00 +20°C° 0.1 mm 1 m/s 746 mmHg 95%
05:00 +20°C° 0.3 mm 2 m/s 747 mmHg 91%
06:00 +21°C° 0.3 mm 2 m/s 747 mmHg 87%
07:00 +23°C° 0.3 mm 2 m/s 747 mmHg 83%
08:00 +25°C° 0 mm 2 m/s 748 mmHg 77%
09:00 +26°C° 0 mm 2 m/s 748 mmHg 71%
10:00 +27°C° 0 mm 2 m/s 748 mmHg 65%
11:00 +28°C° 0 mm 2 m/s 748 mmHg 63%
12:00 +28°C° 0 mm 2 m/s 748 mmHg 61%
13:00 +29°C° 0 mm 3 m/s 748 mmHg 59%
14:00 +29°C° 0 mm 2 m/s 748 mmHg 58%
15:00 +29°C° 0 mm 2 m/s 748 mmHg 57%
16:00 +29°C° 0 mm 2 m/s 749 mmHg 56%
17:00 +28°C° 0 mm 2 m/s 749 mmHg 62%
18:00 +27°C° 0 mm 3 m/s 749 mmHg 68%
19:00 +26°C° 0 mm 3 m/s 749 mmHg 74%
20:00 +24°C° 0 mm 3 m/s 749 mmHg 80%
21:00 +22°C° 0 mm 3 m/s 750 mmHg 85%
22:00 +20°C° 0 mm 4 m/s 750 mmHg 90%
23:00 +19°C° 0 mm 4 m/s 750 mmHg 88%

23 Junho, Quarta-feira

Tempo Temperatura Precipitação Vento Pressão Humidade
00:00 +18°C° 0 mm 4 m/s 750 mmHg 85%
01:00 +17°C° 0 mm 3 m/s 750 mmHg 83%
02:00 +17°C° 0 mm 3 m/s 750 mmHg 83%
03:00 +17°C° 0 mm 3 m/s 750 mmHg 84%
04:00 +16°C° 0 mm 3 m/s 751 mmHg 85%
05:00 +18°C° 0 mm 3 m/s 751 mmHg 79%
06:00 +19°C° 0 mm 3 m/s 751 mmHg 74%
07:00 +21°C° 0 mm 4 m/s 751 mmHg 68%
08:00 +22°C° 0.1 mm 3 m/s 751 mmHg 66%
09:00 +25°C° 0.1 mm 3 m/s 751 mmHg 64%
10:00 +26°C° 0.1 mm 3 m/s 751 mmHg 61%
11:00 +26°C° 0.1 mm 3 m/s 751 mmHg 62%
12:00 +27°C° 0.1 mm 3 m/s 751 mmHg 62%
13:00 +27°C° 0.1 mm 3 m/s 751 mmHg 62%
14:00 +27°C° 0 mm 3 m/s 751 mmHg 62%
15:00 +27°C° 0 mm 3 m/s 751 mmHg 62%
16:00 +28°C° 0 mm 3 m/s 751 mmHg 62%
17:00 +26°C° 0.2 mm 4 m/s 751 mmHg 70%
18:00 +23°C° 0.2 mm 4 m/s 751 mmHg 77%
19:00 +22°C° 0.2 mm 5 m/s 751 mmHg 84%
20:00 +20°C° 0.3 mm 5 m/s 751 mmHg 87%
21:00 +19°C° 0.3 mm 4 m/s 751 mmHg 91%
22:00 +18°C° 0.3 mm 4 m/s 751 mmHg 94%
23:00 +18°C° 0.1 mm 4 m/s 751 mmHg 95%
Mostrar mais

Necessitamos do seu Consentimento

A Meteoprog e os seus Fornecedores de Serviços podem armazenar e aceder a dados pessoais como cookies, identificadores do dispositivo ou outras tecnologias semelhantes existentes no seu dispositivo e processar estes dados para personalizar conteúdos e anúncios, assim como funcionalidades nas redes sociais e análise de tráfego.

  • Armazenar e/ou aceder a informações no seu dispositivo

    Os cookies, identificadores do dispositivo ou outras informações podem ser armazenados ou acedidos no seu dispositivo, para os fins acima indicados.

  • Anúncios e conteúdos personalizados, medição de anúncios e conteúdos, dados sobre o público-alvo e desenvolvimento de produtos

    Os anúncios e os conteúdos podem ser personalizados com base num perfil. Podem ser adicionados dados adicionais para uma maior personalização dos anúncios e dos conteúdos. A eficácia dos anúncios e dos conteúdos pode ser medida. Podem ser obtidas informações sobre o público que visualizou os anúncios e os conteúdos. Estes dados podem ser usados para desenvolver ou melhorar sistemas, softwares ou a experiência do utilizador.

Ao clicar em "Eu concordo”, permitirá o uso de cookies, identificadores do dispositivo e web beacons mencionados ou outras tecnologias semelhantes. As configurações do navegador do seu dispositivo podem ser alteradas.

Para certos fins, podem ser invocados interesses legítimos ao invés de consentimento. Pode ler mais informação sobre este assunto na nossa Política de Privacidade e Cookies.